User: anonymous   Login
Location: Unspecified
(0.0000°N, 0.0000°E)
Time: 09:30:24
(UTC+00:00)
Language:

VELOX 1 - Orbit

View from above orbital plane
View from above orbital plane
View from above satellite
View from above satellite

Ground track
Ground track

The orbit data is extracted from the following two-line orbital elements,

1 40057U 14034E   19142.72600836  .00000302  00000-0  49818-4 0  9996
2 40057  98.2301 265.2379 0010285 327.1754  32.8817 14.77649680263787
Epoch (UTC): 22 May 2019 17:25:27
Eccentricity: 0.0010285
inclination: 98.2301°
perigee height: 629 km
apogee height: 644 km
right ascension of ascending node: 265.2379°
argument of perigee: 327.1754°
revolutions per day: 14.77649680
mean anomaly at epoch: 32.8817°
orbit number at epoch: 26378

The dashed part of the orbit path shows where the satellite is in the earth's shadow,  

DLR